This demonstration page uses our WeatherBlox Daily Observations layout. Learn more.

Left ArrowRight Arrow

41.86663, -103.66717

Hourly Observations for January 27, 2021

Temp ( °F °C ) Dew Point ( °F °C ) Humidity (%) Winds ( mph kmh ) Pressure ( in mb ) Visibility ( mi km ) Precip ( " mm )
12:53 am 00:53 Clear 9 -12.8 4 -15.6 80 80 ESE 10 17 30.19 1023 10 16 0.00 0.00
1:53 am 01:53 Clear 8 -13.3 4 -15.6 83 83 ESE 13 20 30.20 1023 10 16 0.00 0.00
2:53 am 02:53 Clear 8 -13.3 3 -16.1 80 80 ESE 12 19 30.21 1023 10 16 0.00 0.00
3:53 am 03:53 Clear 7 -13.9 3 -16.1 84 84 ESE 10 17 30.21 1023 10 16 0.00 0.00
4:53 am 04:53 Clear 7 -13.9 2 -16.7 80 80 E 9 15 30.22 1023 10 16 0.00 0.00
5:53 am 05:53 Clear 6 -14.4 1 -17.2 79 79 E 8 13 30.24 1024 10 16 0.00 0.00
6:53 am 06:53 Clear 5 -15 0 -17.8 79 79 E 7 11 30.27 1025 10 16 0.00 0.00
7:53 am 07:53 Sunny 7 -13.9 1 -17.2 76 76 Calm 30.30 1026 10 16 0.00 0.00
8:53 am 08:53 Sunny 11 -11.7 6 -14.4 81 81 Calm 30.30 1026 10 16 0.00 0.00
9:53 am 09:53 Sunny 15 -9.4 10 -12.2 80 80 SE 3 6 30.31 1027 10 16 0.00 0.00
10:53 am 10:53 Sunny 19 -7.2 12 -11.1 74 74 E 3 6 30.31 1027 10 16 0.00 0.00
11:53 am 11:53 Sunny 24 -4.4 16 -8.9 71 71 ESE 5 7 30.27 1025 10 16 0.00 0.00
12:53 pm 12:53 Sunny 31 -0.6 21 -6.1 67 67 VRB 5 7 30.23 1024 10 16 0.00 0.00
1:53 pm 13:53 Sunny 39 3.9 22 -5.6 50 50 ESE 7 11 30.18 1022 10 16 0.00 0.00
2:53 pm 14:53 Sunny 43 6.1 20 -6.7 40 40 S 14 22 30.16 1022 10 16 0.00 0.00
3:53 pm 15:53 Sunny 41 5 17 -8.3 38 38 S 16 26 30.18 1022 10 16 0.00 0.00
4:53 pm 16:53 Sunny 36 2.2 17 -8.3 46 46 SE 13 20 30.20 1023 10 16 0.00 0.00
5:53 pm 17:53 Clear 32 0 16 -8.9 52 52 SSE 8 13 30.22 1024 10 16 0.00 0.00
6:53 pm 18:53 Clear 32 0 16 -8.9 52 52 SE 10 17 30.22 1023 10 16 0.00 0.00
7:53 pm 19:53 Clear 25 -3.9 17 -8.3 72 72 ESE 9 15 30.25 1024 10 16 0.00 0.00
8:53 pm 20:53 Clear 22 -5.6 16 -8.9 78 78 ENE 10 17 30.25 1025 10 16 0.00 0.00
9:53 pm 21:53 Clear 20 -6.7 14 -10 78 78 ESE 10 17 30.25 1024 10 16 0.00 0.00
10:53 pm 22:53 Clear 19 -7.2 13 -10.6 77 77 ESE 8 13 30.26 1025 10 16 0.00 0.00
11:53 pm 23:53 Clear 17 -8.3 12 -11.1 80 80 SE 6 9 30.24 1024 10 16 0.00 0.00

Powered by AerisWeather